JAS-1B - Orbit

View from above orbital plane
View from above orbital plane
View from above satellite
View from above satellite

Ground track
Ground track

The orbit data is extracted from the following two-line orbital elements,

1 20480U 90013C   13142.16384346 -.00000014  00000-0  35098-4 0  4342
2 20480 099.0241 174.4382 0540915 160.0905 235.4519 12.83383965 90977
Epoch (UTC): 22 May 2013 03:55:56
Eccentricity: 0.0540915
inclination: 99.0241°
perigee height: 911 km
apogee height: 1745 km
right ascension of ascending node: 174.4382°
argument of perigee: 160.0905°
revolutions per day: 12.83383965
mean anomaly at epoch: 235.4519°
orbit number at epoch: 9097

The dashed part of the orbit path shows where the satellite is in the earth's shadow,  

Developed and maintained by Chris Peat, Heavens-Above GmbH. Please read the updated FAQ before sending e-mail. Imprint. DLR